DW0465 Weather Reports


Display with metric or nautical units.
time (UTC)temp
F
wind
direction
speed
MPH
gust
MPH
rain 1hr
in
rain 24hr
in
rain mn
in
humidity
%
barometer
mb
20260901020005 65 86 0.0 0.0 0.00 0.00 0.00 31 1009.6
20260901014504 68 85 0.0 0.0 0.00 0.00 0.00 25 1009.6
20260901013004 71 84 0.0 0.0 0.00 0.00 0.00 19 1009.6
20260901011504 73 140 0.0 0.0 0.00 0.00 0.00 15 1009.6
20260901010008 74 121 0.0 1.0 0.00 0.00 0.00 14 1009.5
20260901004501 74 89 0.0 2.0 0.00 0.00 0.00 14 1009.2
20260901003100 75 106 0.0 1.0 0.00 0.00 0.00 14 1009.1
20260901001601 76 111 0.0 4.0 0.00 0.00 0.00 14 1009.0
20260901000059 77 89 0.0 4.0 0.00 0.00 0.00 15 1009.0
20260831234603 77 84 0.0 1.0 0.00 0.00 0.00 13 1009.0
20260831233100 78 157 0.0 1.0 0.00 0.00 0.00 12 1009.0
20260831231600 78 140 0.0 2.0 0.00 0.00 0.00 14 1009.2
20260831230054 77 131 0.0 2.0 0.00 0.00 0.00 13 1009.5
20260831224553 77 122 0.0 3.0 0.00 0.00 0.00 13 1009.6
20260831223057 77 136 0.0 6.0 0.00 0.00 0.00 13 1009.5
20260831221604 77 142 0.0 11.0 0.00 0.00 0.00 14 1009.4
20260831220050 77 153 0.0 4.0 0.00 0.00 0.00 14 1009.7
20260831214558 77 117 0.0 8.0 0.00 0.00 0.00 15 1009.7
20260831213047 77 123 0.0 10.0 0.00 0.00 0.00 15 1009.9
20260831211549 76 80 0.0 9.0 0.00 0.00 0.00 17 1010.1
20260831210044 76 36 0.0 6.0 0.00 0.00 0.00 16 1010.1
20260831204545 76 117 0.0 5.0 0.00 0.00 0.00 17 1010.3
20260831203048 75 176 0.0 1.0 0.00 0.00 0.00 18 1010.5
20260831201546 75 182 0.0 2.0 0.00 0.00 0.00 17 1010.6
20260831200041 75 96 0.0 2.0 0.00 0.00 0.00 17 1010.9
20260831194539 75 132 0.0 4.0 0.00 0.00 0.00 17 1011.0
20260831193033 74 157 0.0 1.0 0.00 0.00 0.00 17 1011.2
20260831191529 74 136 0.0 5.0 0.00 0.00 0.00 18 1011.3
20260831190027 73 103 0.0 2.0 0.00 0.00 0.00 17 1011.5
20260831184529 72 114 0.0 7.0 0.00 0.00 0.00 19 1011.7
20260831183023 71 137 0.0 7.0 0.00 0.00 0.00 19 1012.0
20260831181521 71 136 0.0 7.0 0.00 0.00 0.00 20 1012.1
20260831180017 70 109 0.0 3.0 0.00 0.00 0.00 19 1012.2
20260831174514 70 130 0.0 9.0 0.00 0.00 0.00 19 1012.4
20260831173009 69 92 0.0 3.0 0.00 0.00 0.00 20 1012.3
20260831171507 68 95 0.0 3.0 0.00 0.00 0.00 20 1012.4
20260831170004 68 134 0.0 7.0 0.00 0.00 0.00 21 1012.4
20260831164504 68 132 0.0 7.0 0.00 0.00 0.00 23 1012.3
20260831163058 68 150 0.0 5.0 0.00 0.00 0.00 22 1012.3
20260831161554 67 128 0.0 3.0 0.00 0.00 0.00 24 1012.2
20260831160056 66 171 0.0 3.0 0.00 0.00 0.00 25 1012.2
20260831154547 63 164 0.0 1.0 0.00 0.00 0.00 30 1012.3
20260831153040 60 288 0.0 1.0 0.00 0.00 0.00 33 1012.5
20260831151536 58 203 0.0 0.0 0.00 0.00 0.00 32 1012.4
20260831150035 55 203 0.0 0.0 0.00 0.00 0.00 38 1012.6
20260831144526 53 203 0.0 1.0 0.00 0.00 0.00 42 1012.5
20260831143022 50 208 0.0 0.0 0.00 0.00 0.00 46 1012.6
20260831141517 48 207 0.0 0.0 0.00 0.00 0.00 44 1012.5
20260831140019 46 206 0.0 0.0 0.00 0.00 0.00 47 1012.5
20260831134512 42 190 0.0 0.0 0.00 0.00 0.00 48 1012.4
20260831133009 41 193 0.0 0.0 0.00 0.00 0.00 52 1012.1
20260831131507 40 190 0.0 2.0 0.00 0.00 0.00 53 1011.9
20260831130008 39 226 0.0 0.0 0.00 0.00 0.00 60 1011.6
20260831124502 40 205 0.0 0.0 0.00 0.00 0.00 58 1011.2
20260831123059 39 184 0.0 1.0 0.00 0.00 0.00 56 1010.9
20260831121557 39 196 0.0 0.0 0.00 0.00 0.00 63 1010.8
20260831120053 41 196 0.0 0.0 0.00 0.00 0.00 62 1010.5
20260831114552 41 203 0.0 2.0 0.00 0.00 0.00 49 1010.4
20260831113049 41 193 0.0 2.0 0.00 0.00 0.00 51 1010.3
20260831111554 43 225 0.0 1.0 0.00 0.00 0.00 49 1010.2
20260831110049 42 168 0.0 0.0 0.00 0.00 0.00 48 1010.0
20260831104545 43 165 0.0 1.0 0.00 0.00 0.00 50 1010.1
20260831103044 42 176 0.0 0.0 0.00 0.00 0.00 52 1010.1
20260831101551 42 191 0.0 0.0 0.00 0.00 0.00 55 1010.0
20260831100043 42 223 0.0 0.0 0.00 0.00 0.00 57 1009.9
20260831094536 44 208 0.0 0.0 0.00 0.00 0.00 52 1009.7
20260831093038 44 171 0.0 0.0 0.00 0.00 0.00 49 1009.3
20260831091550 45 206 0.0 0.0 0.00 0.00 0.00 51 1009.1
20260831090029 46 188 0.0 0.0 0.00 0.00 0.00 52 1009.0
20260831084523 48 228 0.0 0.0 0.00 0.00 0.00 47 1009.0
20260831083020 49 215 0.0 2.0 0.00 0.00 0.00 42 1008.7
20260831081533 49 183 0.0 1.0 0.00 0.00 0.00 43 1008.6
20260831080042 50 211 0.0 4.0 0.00 0.00 0.00 42 1008.3
20260831074515 50 213 0.0 1.0 0.00 0.00 0.00 43 1008.4
20260831073039 51 215 0.0 2.0 0.00 0.00 0.00 42 1008.3
20260831071514 51 189 0.0 0.0 0.00 0.00 0.00 42 1008.4
20260831070016 50 212 0.0 0.0 0.00 0.00 0.00 43 1008.2
20260831064514 50 214 0.0 2.0 0.00 0.00 0.00 44 1008.2
20260831063020 51 207 0.0 1.0 0.00 0.00 0.00 42 1008.4
20260831061510 51 205 0.0 0.0 0.00 0.00 0.00 41 1008.4
20260831060005 50 208 0.0 3.0 0.00 0.00 0.00 43 1008.3
20260831054504 50 198 0.0 5.0 0.00 0.00 0.00 45 1008.1
20260831053101 51 218 0.0 0.0 0.00 0.00 0.00 44 1008.4
20260831051600 52 202 0.0 0.0 0.00 0.00 0.00 44 1008.5
20260831050101 53 148 0.0 0.0 0.00 0.00 0.00 41 1008.4
20260831044603 54 173 0.0 2.0 0.00 0.00 0.00 37 1008.2
20260831043056 55 166 0.0 0.0 0.00 0.00 0.00 37 1008.2
20260831041607 56 206 0.0 1.0 0.00 0.00 0.00 38 1008.0
20260831040054 57 172 0.0 0.0 0.00 0.00 0.00 34 1007.7
20260831034558 57 193 0.0 0.0 0.00 0.00 0.00 37 1007.9
20260831033052 57 202 0.0 0.0 0.00 0.00 0.00 37 1007.6
20260831031550 58 225 0.0 0.0 0.00 0.00 0.00 38 1007.5
20260831030055 59 155 0.0 0.0 0.00 0.00 0.00 37 1007.6
20260831024547 60 180 0.0 0.0 0.00 0.00 0.00 31 1007.1
20260831023045 62 171 0.0 0.0 0.00 0.00 0.00 30 1006.8
20260831021547 63 302 0.0 0.0 0.00 0.00 0.00 27 1006.6